FW0735 Weather Reports


Display with metric or nautical units.
time (UTC)temp
F
wind
direction
speed
MPH
gust
MPH
rain 1hr
in
rain 24hr
in
rain mn
in
humidity
%
barometer
mb
20260508131012 75 150 10.0 13.0 0.00 0.00 0.00 52 1017.0
20260508130511 75 141 10.0 14.0 0.00 0.00 0.00 53 1017.1
20260508130053 75 133 10.0 14.0 0.00 0.00 0.00 51 1017.1
20260508125506 75 169 10.0 14.0 0.00 0.00 0.00 54 1017.1
20260508124049 74 138 10.0 16.0 0.00 0.00 0.00 56 1017.0
20260508123520 74 131 11.0 17.0 0.00 0.00 0.00 56 1017.0
20260508122541 74 131 13.0 16.0 0.00 0.00 0.00 57 1017.0
20260508122012 74 147 11.0 15.0 0.00 0.00 0.00 62 1017.2
20260508120509 74 154 8.0 11.0 0.00 0.00 0.00 63 1017.2
20260508115004 74 124 9.0 12.0 0.00 0.00 0.00 65 1017.4
20260508114514 74 150 8.0 13.0 0.00 0.00 0.00 65 1017.3
20260508113508 73 129 11.0 14.0 0.00 0.00 0.00 62 1017.3
20260508112511 74 124 11.0 15.0 0.00 0.00 0.00 59 1017.4
20260508112013 74 139 10.0 14.0 0.00 0.00 0.00 61 1017.5
20260508111009 73 129 10.0 15.0 0.00 0.00 0.00 60 1017.4
20260508110028 74 126 9.0 16.0 0.00 0.00 0.00 60 1017.5
20260508105507 74 137 11.0 15.0 0.00 0.00 0.00 57 1017.6
20260508104530 74 129 9.0 14.0 0.00 0.00 0.00 62 1017.7
20260508104009 75 127 11.0 14.0 0.00 0.00 0.00 58 1017.7
20260508102507 75 44 6.0 13.0 0.00 0.00 0.00 57 1017.7
20260508102008 74 146 7.0 13.0 0.00 0.00 0.00 59 1017.7
20260508101534 74 110 9.0 13.0 0.00 0.00 0.00 56 1017.8
20260508101008 74 155 7.0 13.0 0.00 0.00 0.00 55 1017.9
20260508100512 74 126 8.0 14.0 0.00 0.00 0.00 55 1017.9
20260508100028 73 131 10.0 14.0 0.00 0.00 0.00 55 1017.9
20260508095509 73 122 10.0 13.0 0.00 0.00 0.00 53 1018.0
20260508095013 73 127 10.0 13.0 0.00 0.00 0.00 52 1018.0
20260508093512 74 123 10.0 13.0 0.00 0.00 0.00 49 1018.1
20260508093028 75 130 10.0 13.0 0.00 0.00 0.00 48 1018.1
20260508092009 75 97 7.0 12.0 0.00 0.00 0.00 50 1018.2
20260508091519 75 87 6.0 10.0 0.00 0.00 0.00 49 1018.3
20260508091008 76 87 6.0 9.0 0.00 0.00 0.00 49 1018.3
20260508090507 77 110 5.0 9.0 0.00 0.00 0.00 50 1018.3
20260508090022 77 120 4.0 8.0 0.00 0.00 0.00 49 1018.4
20260508085513 77 82 2.0 7.0 0.00 0.00 0.00 44 1018.4
20260508085010 76 80 5.0 7.0 0.00 0.00 0.00 37 1018.5
20260508084524 76 97 4.0 8.0 0.00 0.00 0.00 37 1018.6
20260508084013 76 53 5.0 8.0 0.00 0.00 0.00 36 1018.6
20260508083030 76 119 5.0 6.0 0.00 0.00 0.00 36 1018.6
20260508082509 76 85 4.0 6.0 0.00 0.00 0.00 37 1018.5
20260508082010 76 117 3.0 7.0 0.00 0.00 0.00 38 1018.5
20260508081551 76 100 4.0 9.0 0.00 0.00 0.00 37 1018.6
20260508081013 75 123 5.0 9.0 0.00 0.00 0.00 37 1018.5
20260508080020 75 75 4.0 7.0 0.00 0.00 0.00 44 1018.5
20260508074528 75 74 3.0 9.0 0.00 0.00 0.00 45 1018.6
20260508074006 75 44 5.0 9.0 0.00 0.00 0.00 43 1018.6
20260508073030 75 39 5.0 9.0 0.00 0.00 0.00 34 1018.7
20260508072504 75 52 6.0 9.0 0.00 0.00 0.00 33 1018.6
20260508071513 75 108 5.0 8.0 0.00 0.00 0.00 34 1018.7
20260508070510 75 45 5.0 8.0 0.00 0.00 0.00 36 1018.7
20260508070017 75 80 3.0 8.0 0.00 0.00 0.00 36 1018.6
20260508065507 75 58 4.0 9.0 0.00 0.00 0.00 37 1018.6
20260508065010 75 53 6.0 9.0 0.00 0.00 0.00 35 1018.7
20260508064016 75 95 5.0 10.0 0.00 0.00 0.00 34 1018.7
20260508063513 75 51 3.0 7.0 0.00 0.00 0.00 34 1018.7
20260508063005 75 64 3.0 7.0 0.00 0.00 0.00 36 1018.7
20260508062508 76 56 4.0 7.0 0.00 0.00 0.00 32 1018.8
20260508062004 76 65 2.0 6.0 0.00 0.00 0.00 33 1018.8
20260508061515 76 74 1.0 6.0 0.00 0.00 0.00 33 1018.8
20260508060512 75 324 1.0 7.0 0.00 0.00 0.00 35 1018.8
20260508060015 74 307 2.0 7.0 0.00 0.00 0.00 36 1018.8
20260508055007 74 315 6.0 9.0 0.00 0.00 0.00 36 1018.7
20260508054007 74 288 1.0 7.0 0.00 0.00 0.00 38 1018.6
20260508053511 73 25 3.0 7.0 0.00 0.00 0.00 38 1018.5
20260508053024 73 45 3.0 6.0 0.00 0.00 0.00 38 1018.4
20260508052508 73 306 4.0 6.0 0.00 0.00 0.00 38 1018.5
20260508052010 72 301 3.0 6.0 0.00 0.00 0.00 39 1018.7
20260508051535 72 41 2.0 6.0 0.00 0.00 0.00 41 1018.7
20260508051003 71 308 4.0 6.0 0.00 0.00 0.00 40 1018.5
20260508050503 71 321 3.0 5.0 0.00 0.00 0.00 42 1018.5
20260508050019 70 321 2.0 7.0 0.00 0.00 0.00 44 1018.6
20260508045004 67 347 2.0 4.0 0.00 0.00 0.00 48 1018.5
20260508044514 66 310 1.0 2.0 0.00 0.00 0.00 49 1018.6
20260508044009 66 309 0.0 3.0 0.00 0.00 0.00 50 1018.6
20260508043507 66 328 2.0 3.0 0.00 0.00 0.00 50 1018.5
20260508043019 66 303 0.0 0.0 0.00 0.00 0.00 47 1018.5
20260508042508 66 277 0.0 0.0 0.00 0.00 0.00 48 1018.6
20260508042008 65 275 0.0 2.0 0.00 0.00 0.00 49 1018.5
20260508041523 65 276 0.0 4.0 0.00 0.00 0.00 49 1018.5
20260508041011 64 293 2.0 4.0 0.00 0.00 0.00 48 1018.4
20260508040512 64 281 0.0 0.0 0.00 0.00 0.00 49 1018.4
20260508040012 63 233 0.0 0.0 0.00 0.00 0.00 50 1018.3
20260508035503 64 231 0.0 0.0 0.00 0.00 0.00 48 1018.3
20260508035004 64 234 0.0 0.0 0.00 0.00 0.00 46 1018.3
20260508034512 64 150 0.0 2.0 0.00 0.00 0.00 46 1018.2
20260508034007 64 149 0.0 2.0 0.00 0.00 0.00 47 1018.1
20260508033507 63 168 2.0 2.0 0.00 0.00 0.00 50 1018.1
20260508033022 63 199 0.0 3.0 0.00 0.00 0.00 49 1018.2
20260508032509 63 288 1.0 3.0 0.00 0.00 0.00 49 1018.0
20260508032011 63 290 2.0 3.0 0.00 0.00 0.00 49 1017.9
20260508031529 62 256 2.0 4.0 0.00 0.00 0.00 51 1017.8
20260508031006 63 210 2.0 5.0 0.00 0.00 0.00 51 1017.9
20260508030510 64 260 2.0 6.0 0.00 0.00 0.00 50 1017.9
20260508030028 64 298 5.0 6.0 0.00 0.00 0.00 49 1017.7
20260508025511 64 306 5.0 7.0 0.00 0.00 0.00 49 1017.6
20260508025003 64 317 5.0 7.0 0.00 0.00 0.00 47 1017.6
20260508024507 64 317 5.0 8.0 0.00 0.00 0.00 48 1017.4
20260508024003 64 295 5.0 9.0 0.00 0.00 0.00 49 1017.5
20260508023504 64 306 6.0 9.0 0.00 0.00 0.00 50 1017.4
20260508023023 64 304 7.0 9.0 0.00 0.00 0.00 48 1017.4
20260508022506 64 358 6.0 9.0 0.00 0.00 0.00 48 1017.3
20260508022006 64 331 7.0 9.0 0.00 0.00 0.00 47 1017.3
20260508021517 64 353 5.0 9.0 0.00 0.00 0.00 47 1017.1
20260508021008 64 304 4.0 9.0 0.00 0.00 0.00 46 1017.1
20260508020509 64 333 5.0 9.0 0.00 0.00 0.00 48 1017.1
20260508020022 64 314 5.0 9.0 0.00 0.00 0.00 49 1017.3
20260508015508 64 326 5.0 9.0 0.00 0.00 0.00 45 1017.2
20260508015014 64 311 5.0 11.0 0.00 0.00 0.00 46 1017.1
20260508014543 64 342 6.0 11.0 0.00 0.00 0.00 46 1017.2
20260508014008 64 322 5.0 9.0 0.00 0.00 0.00 46 1017.3
20260508013503 64 345 5.0 11.0 0.00 0.00 0.00 46 1017.2
20260508013011 64 273 7.0 12.0 0.00 0.00 0.00 46 1017.2
20260508012507 64 310 7.0 12.0 0.00 0.00 0.00 47 1017.1
20260508012007 64 300 6.0 13.0 0.00 0.00 0.00 49 1017.2
20260508011518 64 306 10.0 13.0 0.00 0.00 0.00 49 1017.3
20260508011006 64 338 8.0 12.0 0.00 0.00 0.00 50 1017.2
20260508010508 63 304 8.0 10.0 0.00 0.00 0.00 51 1017.2
20260508010031 63 322 6.0 10.0 0.00 0.00 0.00 51 1017.2
20260508005515 64 321 7.0 10.0 0.00 0.00 0.00 52 1017.1
20260508005011 64 330 5.0 10.0 0.00 0.00 0.00 49 1017.1
20260508004529 64 325 7.0 12.0 0.00 0.00 0.00 47 1017.1
20260508004010 64 298 5.0 13.0 0.00 0.00 0.00 51 1017.1
20260508003514 64 308 9.0 13.0 0.00 0.00 0.00 49 1017.1
20260508003051 64 296 8.0 13.0 0.00 0.00 0.00 50 1017.2
20260508002513 64 293 7.0 13.0 0.00 0.00 0.00 48 1017.3
20260508002010 64 303 6.0 11.0 0.00 0.00 0.00 46 1017.3
20260508001512 64 327 4.0 14.0 0.00 0.00 0.00 48 1017.2
20260508001006 64 301 8.0 14.0 0.00 0.00 0.00 49 1017.4
20260508000507 64 302 9.0 15.0 0.00 0.00 0.00 50 1017.4
20260508000017 64 334 10.0 17.0 0.00 0.00 0.00 49 1017.5
20260507235514 64 297 11.0 17.0 0.00 0.00 0.00 48 1017.6
20260507235006 64 304 9.0 13.0 0.00 0.00 0.00 50 1017.5
20260507234523 64 300 8.0 13.0 0.00 0.00 0.00 47 1017.4
20260507234009 64 285 6.0 11.0 0.00 0.00 0.00 46 1017.4
20260507233506 64 315 6.0 11.0 0.00 0.00 0.00 48 1017.4
20260507233032 64 324 5.0 9.0 0.00 0.00 0.00 51 1017.4
20260507232510 63 327 4.0 9.0 0.00 0.00 0.00 56 1017.5
20260507232015 63 324 5.0 10.0 0.00 0.00 0.00 61 1017.6
20260507231531 63 305 5.0 12.0 0.00 0.00 0.00 63 1017.6
20260507231014 64 305 8.0 12.0 0.00 0.00 0.00 63 1017.7
20260507230510 64 300 7.0 12.0 0.00 0.00 0.00 62 1017.6
20260507230017 64 330 7.0 11.0 0.00 0.00 0.00 60 1017.5
20260507225511 64 304 6.0 10.0 0.00 0.00 0.00 60 1017.5
20260507225005 64 310 6.0 9.0 0.00 0.00 0.00 60 1017.5
20260507224520 64 321 5.0 13.0 0.00 0.00 0.00 60 1017.5
20260507224008 64 319 5.0 13.0 0.00 0.00 0.00 61 1017.6
20260507223507 64 306 6.0 12.0 0.00 0.00 0.00 61 1017.7
20260507223026 64 309 5.0 11.0 0.00 0.00 0.00 61 1017.7
20260507222508 64 305 6.0 11.0 0.00 0.00 0.00 61 1017.7
20260507222010 64 330 5.0 14.0 0.00 0.00 0.00 62 1017.7
20260507221003 64 340 7.0 12.0 0.00 0.00 0.00 65 1017.8
20260507220506 64 323 6.0 14.0 0.00 0.00 0.00 65 1017.9
20260507220013 64 317 6.0 14.0 0.00 0.00 0.00 65 1018.0
20260507215506 64 300 6.0 12.0 0.00 0.00 0.00 65 1018.0
20260507215007 64 23 5.0 12.0 0.00 0.00 0.00 66 1018.0
20260507214518 64 328 5.0 12.0 0.00 0.00 0.00 67 1018.1
20260507214005 64 32 6.0 12.0 0.00 0.00 0.00 67 1018.2
20260507213509 64 302 6.0 12.0 0.00 0.00 0.00 69 1018.3
20260507213020 64 310 5.0 11.0 0.00 0.00 0.00 69 1018.3
20260507212508 64 326 7.0 12.0 0.00 0.00 0.00 69 1018.3
20260507212009 64 302 5.0 12.0 0.00 0.00 0.00 70 1018.3
20260507211526 64 300 6.0 11.0 0.00 0.00 0.00 70 1018.3
20260507211010 64 330 6.0 11.0 0.00 0.00 0.00 70 1018.3
20260507210503 64 311 5.0 14.0 0.00 0.00 0.00 70 1018.3
20260507210011 64 326 6.0 14.0 0.00 0.00 0.00 71 1018.4
20260507205503 64 331 8.0 17.0 0.00 0.00 0.00 71 1018.4
20260507205006 64 329 8.0 19.0 0.00 0.00 0.00 71 1018.4
20260507204514 64 300 9.0 19.0 0.00 0.00 0.00 71 1018.4
20260507204005 64 331 7.0 16.0 0.00 0.00 0.00 71 1018.3
20260507203509 64 309 6.0 16.0 0.00 0.00 0.00 71 1018.4
20260507203019 64 330 7.0 16.0 0.00 0.00 0.00 70 1018.4
20260507202509 65 290 9.0 16.0 0.00 0.00 0.00 70 1018.4
20260507202009 65 280 8.0 14.0 0.00 0.00 0.00 70 1018.4
20260507201527 65 312 8.0 13.0 0.00 0.00 0.00 69 1018.4
20260507201007 65 319 6.0 13.0 0.00 0.00 0.00 67 1018.4
20260507200510 65 335 7.0 14.0 0.00 0.00 0.00 66 1018.4
20260507200027 65 307 5.0 14.0 0.00 0.00 0.00 66 1018.4
20260507195507 65 319 6.0 12.0 0.00 0.00 0.00 67 1018.3
20260507195003 65 325 6.0 10.0 0.00 0.00 0.00 67 1018.3
20260507194511 65 295 5.0 14.0 0.00 0.00 0.00 68 1018.4
20260507194003 65 318 7.0 14.0 0.00 0.00 0.00 67 1018.4
20260507193506 65 302 8.0 13.0 0.00 0.00 0.00 66 1018.4
20260507193014 65 328 5.0 13.0 0.00 0.00 0.00 64 1018.4
20260507192505 65 327 6.0 13.0 0.00 0.00 0.00 65 1018.4
20260507192014 65 302 5.0 13.0 0.00 0.00 0.00 65 1018.4
20260507191520 65 302 6.0 13.0 0.00 0.00 0.00 66 1018.4
20260507191007 65 344 4.0 9.0 0.00 0.00 0.00 66 1018.4
20260507190510 65 314 5.0 10.0 0.00 0.00 0.00 66 1018.4
20260507190027 65 328 4.0 10.0 0.00 0.00 0.00 66 1018.3
20260507185509 65 312 5.0 10.0 0.00 0.00 0.00 65 1018.4
20260507185011 65 323 4.0 10.0 0.00 0.00 0.00 65 1018.3
20260507184525 66 304 4.0 8.0 0.00 0.00 0.00 65 1018.3
20260507184007 66 327 3.0 7.0 0.00 0.00 0.00 65 1018.2
20260507183504 66 317 2.0 7.0 0.00 0.00 0.00 65 1018.3
20260507183040 66 322 3.0 6.0 0.00 0.00 0.00 65 1018.3
20260507182505 66 330 2.0 10.0 0.00 0.00 0.00 65 1018.2
20260507182009 66 302 2.0 10.0 0.00 0.00 0.00 65 1018.2
20260507181515 66 317 4.0 10.0 0.00 0.00 0.00 65 1018.2
20260507181005 66 325 5.0 10.0 0.00 0.00 0.00 65 1018.2
20260507180511 66 18 4.0 8.0 0.00 0.00 0.00 66 1018.1
20260507180021 66 356 2.0 7.0 0.00 0.00 0.00 67 1018.0
20260507175511 66 23 2.0 8.0 0.00 0.00 0.00 70 1018.0
20260507175007 66 7 3.0 8.0 0.00 0.00 0.00 70 1018.0
20260507174523 66 317 3.0 7.0 0.00 0.00 0.00 71 1017.9
20260507174009 66 323 3.0 7.0 0.00 0.00 0.00 72 1017.9
20260507173509 65 303 4.0 6.0 0.00 0.00 0.00 73 1017.9
20260507173031 65 283 5.0 7.0 0.00 0.00 0.00 72 1017.8
20260507172509 66 297 5.0 9.0 0.00 0.00 0.00 72 1017.9
20260507172006 66 298 5.0 10.0 0.00 0.00 0.00 73 1017.9
20260507171511 66 264 8.0 10.0 0.00 0.00 0.00 72 1017.9
20260507171008 66 249 7.0 10.0 0.00 0.00 0.00 72 1017.9
20260507170507 66 249 7.0 8.0 0.00 0.00 0.00 70 1017.9
20260507170017 66 253 5.0 6.0 0.00 0.00 0.00 70 1017.8
20260507165510 66 243 5.0 7.0 0.00 0.00 0.00 70 1017.7
20260507165014 66 238 4.0 8.0 0.00 0.00 0.00 70 1017.6
20260507164524 66 232 6.0 10.0 0.00 0.00 0.00 70 1017.7
20260507164010 67 233 6.0 10.0 0.00 0.00 0.00 69 1017.7
20260507163507 67 245 8.0 10.0 0.00 0.00 0.00 68 1017.8
20260507163028 67 223 7.0 10.0 0.00 0.00 0.00 67 1017.8
20260507162510 68 232 7.0 9.0 0.00 0.00 0.00 66 1017.7
20260507162018 68 210 5.0 10.0 0.00 0.00 0.00 64 1017.7
20260507161527 69 203 7.0 10.0 0.00 0.00 0.00 63 1017.7
20260507161009 70 175 5.0 8.0 0.00 0.00 0.00 61 1017.6
20260507160529 70 248 5.0 9.0 0.00 0.00 0.00 59 1017.6
20260507160015 70 219 7.0 9.0 0.00 0.00 0.00 60 1017.6
20260507155509 70 248 6.0 9.0 0.00 0.00 0.00 60 1017.6
20260507155011 70 221 7.0 9.0 0.00 0.00 0.00 59 1017.6
20260507154520 70 213 6.0 9.0 0.00 0.00 0.00 60 1017.5
20260507154010 70 247 7.0 9.0 0.00 0.00 0.00 58 1017.5
20260507153507 70 190 5.0 9.0 0.00 0.00 0.00 59 1017.6
20260507153031 70 235 7.0 11.0 0.00 0.00 0.00 58 1017.6
20260507152512 70 250 7.0 11.0 0.00 0.00 0.00 58 1017.5
20260507152007 70 233 7.0 11.0 0.00 0.00 0.00 57 1017.6
20260507151526 71 220 7.0 9.0 0.00 0.00 0.00 57 1017.7
20260507151010 71 206 4.0 9.0 0.00 0.00 0.00 53 1017.6
20260507150513 71 159 6.0 10.0 0.00 0.00 0.00 53 1017.6
20260507150026 71 182 6.0 10.0 0.00 0.00 0.00 54 1017.6
20260507145507 71 214 8.0 10.0 0.00 0.00 0.00 53 1017.6
20260507145005 71 131 3.0 6.0 0.00 0.00 0.00 52 1017.6
20260507144520 72 210 2.0 7.0 0.00 0.00 0.00 52 1017.7
20260507144007 72 207 5.0 7.0 0.00 0.00 0.00 51 1017.6
20260507143510 71 180 4.0 7.0 0.00 0.00 0.00 51 1017.7
20260507143026 71 143 5.0 10.0 0.00 0.00 0.00 51 1017.7
20260507142508 71 227 7.0 10.0 0.00 0.00 0.00 51 1017.8
20260507142010 71 205 5.0 8.0 0.00 0.00 0.00 52 1017.8
20260507141525 71 210 5.0 9.0 0.00 0.00 0.00 51 1017.8
20260507141009 71 196 5.0 10.0 0.00 0.00 0.00 51 1017.8
20260507140512 71 195 6.0 12.0 0.00 0.00 0.00 52 1017.8
20260507140029 71 214 8.0 12.0 0.00 0.00 0.00 53 1017.8
20260507135510 71 159 5.0 11.0 0.00 0.00 0.00 54 1017.9
20260507135015 71 132 7.0 12.0 0.00 0.00 0.00 56 1018.0
20260507134530 70 155 7.0 12.0 0.00 0.00 0.00 53 1018.0
20260507134009 70 137 8.0 12.0 0.00 0.00 0.00 58 1018.0
20260507133515 69 143 7.0 14.0 0.00 0.00 0.00 61 1017.9
20260507133019 69 139 9.0 14.0 0.00 0.00 0.00 60 1018.0
20260507132507 69 155 9.0 14.0 0.00 0.00 0.00 62 1018.1
20260507132009 70 137 10.0 13.0 0.00 0.00 0.00 59 1018.1